Regional Weather Roundup
Issued by NWS

Home | Current Version | Previous Version | Text Only | Print | Product List | Glossary On
Versions: 1 2 3 4 5 6 7 8 9 10 11 12 13 14 15 16 17 18 19 20 21 22 23 24 25 26 27
000
ASUS45 KPSR 030910
RWRAZ

ARIZONA HOURLY REGIONAL WEATHER ROUNDUP
NATIONAL WEATHER SERVICE PHOENIX AZ
200 AM MST TUE AUG 03 2021

NOTE: FAIR INDICATES FEW OR NO CLOUDS BELOW 12,000 FEET WITH NO
SIGNIFICANT WEATHER AND/OR OBSTRUCTIONS TO VISIBILITY.

AZZ001>003-036-031000-
NORTHWEST ARIZONA

CITY           SKY/WX    TMP DP  RH WIND       PRES   REMARKS
BULLHEAD CITY  CLEAR     95  45  17 CALM      29.82S
KINGMAN        CLEAR     76  52  43 E3        30.09S
$$

AZZ004>008-015-016-018-031000-
NORTH CENTRAL ARIZONA

CITY           SKY/WX    TMP DP  RH WIND       PRES   REMARKS
GRAND CANYON   CLEAR     56  51  84 NE7       30.37F
WILLIAMS       PTCLDY    55  52  88 S9        30.37F
PRESCOTT       CLEAR     68  53  58 S6        30.23S
FLAGSTAFF      CLEAR     55  47  74 CALM      30.39F
PAYSON         MOCLDY    72  57  60 CALM      30.25F
PAGE           CLEAR     76  53  44 SW3       30.17F
$$

AZZ009>014-017-031000-
NORTHEAST ARIZONA

CITY           SKY/WX    TMP DP  RH WIND       PRES   REMARKS
WINSLOW        PTCLDY    72  54  53 VRB3      30.19F
SAINT JOHNS    CLEAR     64  58  80 CALM      30.26F
WINDOW ROCK    CLEAR     57  53  86 S3        30.35F
SHOW LOW       PTCLDY    66  54  63 S12       30.34S
$$

AZZ540-542>544-546-548-031000-
GREATER PHOENIX AREA

CITY           SKY/WX    TMP DP  RH WIND       PRES   REMARKS
PHOENIX        PTCLDY    94  62  34 SE10      29.86S
BUCKEYE          N/A     88  57  35 N5        29.85S
LUKE AFB       PTCLDY    92  58  31 E5        29.85R
DEER VALLEY    CLEAR     92  62  36 SE13      29.89F
SCOTTSDALE     CLEAR     92  62  36 SE6       29.91F
MESA-FALCON    CLEAR     93  61  34 SE5       29.90R
MESA-GATEWAY     N/A     89  63  42 S9        29.92S
$$

AZZ539-553-031000-
SOUTHWEST MARICOPA COUNTY AND PINAL COUNTY

CITY           SKY/WX    TMP DP  RH WIND       PRES   REMARKS
CASA GRANDE    PTCLDY    88  62  41 SE3       29.94R
GILA BEND      FAIR      91  55  29 SE8       29.84S
$$

AZZ503-504-507>509-031000-
SOUTHEAST ARIZONA

CITY           SKY/WX    TMP DP  RH WIND       PRES   REMARKS
TUCSON         CLEAR     82  63  52 SE14      30.04F
DAVIS-MONTHAN  PTCLDY    80  67  63 SE14      30.03F
NOGALES        CLEAR     69  64  84 NE6       30.15F
SIERRA VISTA   PTCLDY    69  63  80 W8        30.21F
SAFFORD        CLEAR     75  66  73 SE7       30.08F
$$

AZZ532-031000-
SOUTHWEST ARIZONA

CITY           SKY/WX    TMP DP  RH WIND       PRES   REMARKS
YUMA           CLEAR     90  66  45 CALM      29.80F
$$

CAZ041-043-047-048-061-525>527-560>570-031000-
SOUTHERN CALIFORNIA

CITY           SKY/WX    TMP DP  RH WIND       PRES   REMARKS
DOWNTOWN L.A.  CLEAR     68  58  70 CALM      29.95F
L.A. AIRPORT   CLEAR     64  58  80 W3        29.95F
SAN DIEGO      CLEAR     68  61  78 NW3       29.97F
BURBANK        CLEAR     73  53  49 CALM      29.96F
ONTARIO        CLEAR     77  46  33 CALM      29.97F
RIVERSIDE      CLEAR     72  43  35 CALM      29.97F
PALM SPRINGS   CLEAR     93  43  17 NW5       29.86S
EL CENTRO NAS  CLEAR     91  32  12 W6        29.81S
IMPERIAL       CLEAR     86  41  20 W7        29.79S
NEEDLES        CLEAR     96  43  16 CALM      29.84S
$$

NVZ020-UTZ003-031000-
SOUTHERN NEVADA-UTAH

CITY           SKY/WX    TMP DP  RH WIND       PRES   REMARKS
LAS VEGAS      CLEAR     89  48  24 S6        29.96S
SALT LAKE CITY PTCLDY    68  60  75 NW6       30.23S
$$

NMZ009-TXZ055-031000-
NEW MEXICO-WEST TEXAS

CITY           SKY/WX    TMP DP  RH WIND       PRES   REMARKS
ALBUQUERQUE    CLOUDY    71  55  56 NE7       30.26S
EL PASO        MOCLDY    73  59  61 SE5       30.18F
$$


........................KEY........................
SKY/WX - SKY CONDITION/WEATHER
TMP    - TEMPERATURE IN FAHRENHEIT
DP     - DEW POINT IN FAHRENHEIT
RH     - RELATIVE HUMIDITY IN PERCENT
WIND   - DIRECTION AND SPEED IN MILES PER HOUR (MPH)
VRB    - VARIABLE WIND DIRECTION
PRES   - MEAN SEA LEVEL PRESSURE IN INCHES OF MERCURY
         F - FALLING PRESSURE   R - RISING PRESSURE
         S - STEADY PRESSURE
VSB    - VISIBILITY IN MILES
HX     - HEAT INDEX IN FAHRENHEIT
WCI    - WIND CHILL INDEX IN FAHRENHEIT
TC     - TEMPERATURE IN CELSIUS WHICH IS ALSO KNOWN AS
         TEMPERATURE IN CENTIGRADE
AFB    - AIR FORCE BASE
         LUKE AFB IS LUKE AIR FORCE BASE
         DAVIS-MONTHAN IS DAVIS-MONTHAN AIR FORCE BASE
NAS    - NAVAL AIR STATION
         EL CENTRO NAS IS EL CENTRO NAVAL AIR STATION
N/A    - NOT AVAILABLE




USA.gov is the U.S. government's official web portal to all federal, state and local government web resources and services.